Home > Weather > San Angelo > Past weeks

Flag for USA Past Weather in San Angelo, Texas, USA — Yesterday and Last 2 Weeks

Now
74 °F

Passing clouds.


Feels Like: 74 °F
Forecast: 70 / 87 °F
Wind: No wind

Location: Mathis Field

Current Time: Aug 29, 2016 at 2:27:33 AM

Latest Report: Aug 29, 2016 at 1:51 AM


Visibility: 10 mi

Pressure: 29.96 "Hg (28.09 "Hg at 561m altitude)

Humidity: 82%

Dew Point: 68 °F

Location of San AngeloLocation

Past Weather in San Angelo — Graph

°F

San Angelo Temperature Yesterday

Maximum temperature yesterday: 91 °F (at 1:51 PM)
Minimum temperature yesterday: 68 °F (at 5:51 AM)
Average temperature yesterday: 79 °F

High & Low Weather Summary for the Past Weeks

 TemperatureHumidityPressure
High95 °F (Aug 23, 4:51 PM)94% (Aug 17, 5:51 AM)30.14 "Hg (Aug 17, 5:51 AM)
Low63 °F (Aug 16, 5:51 AM)18% (Aug 25, 3:51 PM)29.79 "Hg (Aug 19, 5:51 PM)
Average79 °F70%29.97 "Hg
* Reported Aug 14 12:51 AM — Aug 29 12:51 AM, San Angelo, Weather by CustomWeather, © 2016

Note: Actual official high and low records may vary slightly from our data, if they occured in-between our weather recording intervals... More about our weather records

Advertising

San Angelo Weather History for the Previous 24 Hours

Scroll right to see more
 ConditionsComfort  
Time TempWeatherWind HumidityBarometerVisibility
12:51 AM
Mon, Aug 29
74 °FPassing clouds.6 mph79%29.98 "Hg10 mi
11:51 PM
Sun, Aug 28
75 °FPassing clouds.6 mph76%30.00 "Hg10 mi
10:51 PM76 °FPassing clouds.5 mph77%30.00 "Hg10 mi
9:51 PM77 °FPassing clouds.5 mph74%29.98 "Hg10 mi
8:51 PM78 °FSunny.7 mph69%29.96 "Hg10 mi
7:51 PM83 °FSunny.7 mph61%29.94 "Hg10 mi
6:51 PM86 °FSunny.10 mph55%29.91 "Hg10 mi
5:51 PM86 °FSunny.16 mph51%29.92 "Hg10 mi
4:51 PM85 °FSunny.18 mph53%29.93 "Hg10 mi
3:58 PM90 °FThundershowers. Passing clouds.14 mph45%30.01 "Hg10 mi
3:51 PM90 °FPassing clouds.9 mph47%29.92 "Hg10 mi
2:51 PM89 °FSunny.8 mph43%29.95 "Hg10 mi
1:51 PM91 °FSunny.7 mph45%29.97 "Hg10 mi
12:51 PM89 °FPassing clouds.6 mph50%30.00 "Hg10 mi
11:51 AM85 °FSunny.5 mph55%30.02 "Hg10 mi
10:51 AM83 °FSunny.7 mph65%30.03 "Hg10 mi
9:51 AM80 °FSunny.5 mph69%30.03 "Hg10 mi
8:51 AM74 °FSunny.3 mph82%30.04 "Hg10 mi
7:51 AM71 °FClear.3 mph90%30.02 "Hg10 mi
6:51 AM69 °FClear.No wind90%30.00 "Hg10 mi
5:51 AM68 °FClear.No wind90%29.98 "Hg10 mi
4:51 AM70 °FClear.5 mph87%29.98 "Hg10 mi
3:51 AM71 °FClear.No wind84%29.99 "Hg10 mi
2:51 AM72 °FClear.7 mph84%29.98 "Hg10 mi
Weather by CustomWeather, © 2016

See weather overviewHow to use our weather pages